Location: Ladrillo (historical)
(32.8195°N, 117.2231°W)
Time: 00:17:09
(UTC+00:00)

Altair - Pass Details

Date: 01 March 2021
Orbit: 1501 x 1683 km, 47.2° (Epoch: 16 April)

Event Time Altitude Azimuth Distance (km) Brightness Sun altitude
Exits shadow 12:34:19 11° 214° (SW) 3,859 9.2 -22.2°
Drops below altitude 10° 12:34:51 10° 211° (SSW) 3,924 9.3 -22.1°
Sets 12:40:20 0° 188° (S) 4,919 10.0 -21.0°
